Content
SEND FEEDBACK

Daily
Averages
Monthly
Summary
United States of America

SOUTH LAKE TAHOE, CALIFORNIA


Home > North America > United States > California
Elevation: 1908 meters     Latitude: 38 53N     Longitude: 119 59W

WEATHER
 
SELECT A DAY
Number of Records: 174,537;   Date Range: 1/1/95 - 8/30/14
 
SHARE

PRINT THIS DATA

[ ← Previous Day ]
WEATHER ALMANAC - 26 MARCH, 2013
[ Next Day → ]
[ °F ]   °C
Weather ElementAverageHighLow
Temperature6.7 °C10 °C (2:53 pm)3.9 °C (2:53 am)
Dewpoint-2.9 °C1.1 °C (4:53 pm)-8.9 °C (5:53 am)
Humidity51.7 %76 % (9:53 pm)36 % (5:53 am)
Barometer1012.5 hPa1015.2 hPa (10:00 am)1010.2 hPa (1:53 am)
Wind Speed13 km/h37 km/h (1:53 am)
Wind Gust51.8 km/h (1:53 am)
Weather ElementAverage
Visibility15.1 km
Wind DirectionSE (138.5 °)

Weather ElementTotal
Precipitation---
Heating Degree Days11.4 (Base 18.3)
Averaged from 26 records on 26 March, 2013
WEATHER CONDITIONS BREAKOUT
WIND DIRECTION BREAKOUT
WEATHER BY HOUR - 26 MARCH, 2013
[ °F ]   °C
Local TimeTemperatureDewpointHumidityBarometerVisibilityWind DirectionWind SpeedGust SpeedPrecipitationEventsConditions
1:53 AM6.7 °C-4.4 °C45 %1010.2 hPa16.1 kmSouth (190°)37 km/h51.8 km/hOvercast
2:46 AM4 °C-3 °C61 %1014.2 hPa16.1 kmSSE (160°)20.4 km/h42.6 km/h0 mmMostly Cloudy
2:53 AM3.9 °C-3.9 °C57 %1010.8 hPa16.1 kmSE (140°)13 km/h35.2 km/h0 mmMostly Cloudy
3:53 AM5.6 °C-7.2 °C40 %1010.5 hPa16.1 kmVariable9.3 km/hOvercast
4:53 AM5.6 °C-8.3 °C37 %1010.8 hPa16.1 kmVariable7.4 km/hOvercast
5:53 AM5 °C-8.9 °C36 %1011.2 hPa16.1 kmSSW (200°)11.1 km/hScattered Clouds
6:53 AM4.4 °C-8.9 °C38 %1011.9 hPa16.1 kmVariable7.4 km/h31.5 km/hScattered Clouds
7:53 AM5 °C-8.3 °C38 %1012.2 hPa16.1 kmSouth (190°)7.4 km/hPartly Cloudy
8:53 AM6.7 °C-7.2 °C37 %1012.5 hPa16.1 kmSouth (180°)9.3 km/hOvercast
9:53 AM7.2 °C-3.9 °C46 %1012.2 hPa4.8 kmSouth (190°)18.5 km/hHaze
10:00 AM8 °C-4 °C43 %1015.2 hPa4 kmSouth (190°)20.4 km/hHaze
10:09 AM8 °C-3 °C46 %1015.2 hPa16.1 kmSSW (210°)14.8 km/h35.2 km/hOvercast
10:53 AM8.3 °C-2.2 °C48 %1012.9 hPa16.1 kmSouth (190°)22.2 km/h35.2 km/hScattered Clouds
11:53 AM8.3 °C0.6 °C59 %1012.9 hPa16.1 kmSSW (200°)20.4 km/h37 km/h0 mmRainLight Rain
12:53 PM9.4 °C0 °C52 %1012.2 hPa16.1 kmSSW (210°)14.8 km/h40.7 km/h0 mmRainLight Rain
1:53 PM9.4 °C-1.7 °C46 %1012.5 hPa16.1 kmSSW (200°)25.9 km/h38.9 km/h0 mmMostly Cloudy
2:53 PM10 °C-1.1 °C46 %1012.9 hPa16.1 kmSSW (200°)18.5 km/h37 km/hScattered Clouds
3:53 PM9.4 °C-1.7 °C46 %1012.2 hPa16.1 kmSSW (210°)13 km/h0 mmMostly Cloudy
4:53 PM7.8 °C1.1 °C63 %1012.5 hPa16.1 kmSSE (150°)13 km/h31.5 km/h0 mmScattered Clouds
5:53 PM7.8 °C-0.6 °C56 %1012.5 hPa16.1 kmSSW (200°)16.7 km/hMostly Cloudy
6:53 PM7.8 °C-0.6 °C56 %1012.9 hPa16.1 kmSouth (190°)11.1 km/hOvercast
7:53 PM6.7 °C0 °C63 %1013.2 hPa16.1 kmSSW (200°)5.6 km/hOvercast
8:53 PM6.1 °C-0.6 °C62 %1013.2 hPa16.1 kmCalmOvercast
9:53 PM5 °C1.1 °C76 %1013.9 hPa16.1 kmCalm0 mmOvercast
10:53 PM5 °C0.6 °C73 %1013.5 hPa16.1 kmCalmMostly Cloudy
11:53 PM4.4 °C0 °C73 %1013.2 hPa16.1 kmCalmMostly Cloudy
Hourly data recorded from KTVL, located 0 kilometers away from South Lake Tahoe, California







STORIES FROM OUR PARTNERS